When you browse on this site, cookies collect data to enhance your experience and personalize the content and advertising you see.
Visit our Privacy Policy to learn more. By continuing to use the site, you agree to this use of cookies and data.
  • In Hungary
  • List of Countries
  • For 7 days
  • Water Temperature
  • Satellite Maps
  • Weather Map
  • News
  • Weather Widgets
  • user-avatar
    Login

    Hourly Weather Blagoevgrad

    Today, 19 November, Monday

    Time Temperature Precipitation Wind Pressure Humidity
    00:00 +4°C° 0.6 mm 2 mps 717 mmHg 89%
    01:00 +5°C° 0.6 mm 1 mps 716 mmHg 89%
    02:00 +5°C° 0.6 mm 1 mps 716 mmHg 89%
    03:00 +5°C° 0.2 mm 1 mps 716 mmHg 89%
    04:00 +5°C° 0.2 mm 1 mps 716 mmHg 89%
    05:00 +5°C° 0.2 mm 1 mps 716 mmHg 89%
    06:00 +5°C° 0 mm 1 mps 716 mmHg 88%
    07:00 +4°C° 0 mm 1 mps 716 mmHg 88%
    08:00 +4°C° 0 mm 1 mps 717 mmHg 88%
    09:00 +6°C° 0 mm 1 mps 717 mmHg 86%
    10:00 +7°C° 0 mm 1 mps 717 mmHg 84%
    11:00 +9°C° 0 mm 1 mps 718 mmHg 83%
    12:00 +9°C° 0 mm 1 mps 718 mmHg 81%
    13:00 +10°C° 0 mm 1 mps 718 mmHg 80%
    14:00 +10°C° 0 mm 1 mps 718 mmHg 78%
    15:00 +9°C° 0 mm 1 mps 718 mmHg 79%
    16:00 +8°C° 0 mm 1 mps 719 mmHg 81%
    17:00 +6°C° 0 mm 0 mps 719 mmHg 82%
    18:00 +7°C° 0 mm 1 mps 719 mmHg 81%
    19:00 +6°C° 0 mm 1 mps 720 mmHg 80%
    20:00 +6°C° 0 mm 1 mps 720 mmHg 78%
    21:00 +6°C° 0 mm 1 mps 720 mmHg 77%
    22:00 +6°C° 0 mm 1 mps 720 mmHg 75%
    23:00 +7°C° 0 mm 1 mps 721 mmHg 74%

    Tomorrow, 20 November, Tuesday

    Time Temperature Precipitation Wind Pressure Humidity
    00:00 +7°C° 0 mm 1 mps 721 mmHg 76%
    01:00 +6°C° 0 mm 2 mps 721 mmHg 77%
    02:00 +6°C° 0 mm 2 mps 721 mmHg 79%
    03:00 +6°C° 0.5 mm 2 mps 721 mmHg 82%
    04:00 +6°C° 0.5 mm 2 mps 721 mmHg 85%
    05:00 +7°C° 0.5 mm 2 mps 721 mmHg 88%
    06:00 +7°C° 0.2 mm 2 mps 721 mmHg 89%
    07:00 +7°C° 0.2 mm 2 mps 721 mmHg 90%
    08:00 +7°C° 0.2 mm 2 mps 721 mmHg 90%
    09:00 +8°C° 0.1 mm 2 mps 721 mmHg 89%
    10:00 +9°C° 0.1 mm 3 mps 721 mmHg 88%
    11:00 +10°C° 0.1 mm 3 mps 721 mmHg 88%
    12:00 +11°C° 0.2 mm 3 mps 721 mmHg 87%
    13:00 +11°C° 0.2 mm 3 mps 720 mmHg 86%
    14:00 +12°C° 0.2 mm 3 mps 720 mmHg 85%
    15:00 +11°C° 0.2 mm 3 mps 719 mmHg 88%
    16:00 +12°C° 0.2 mm 2 mps 719 mmHg 90%
    17:00 +10°C° 0.2 mm 2 mps 719 mmHg 92%
    18:00 +10°C° 0.1 mm 2 mps 719 mmHg 92%
    19:00 +10°C° 0.1 mm 2 mps 719 mmHg 93%
    20:00 +9°C° 0.1 mm 2 mps 719 mmHg 94%
    21:00 +9°C° 0.1 mm 2 mps 719 mmHg 94%
    22:00 +9°C° 0.1 mm 2 mps 719 mmHg 94%
    23:00 +9°C° 0.1 mm 2 mps 719 mmHg 94%

    Day after tomorrow, 21 November, Wednesday

    Time Temperature Precipitation Wind Pressure Humidity
    00:00 +9°C° 0.2 mm 2 mps 719 mmHg 94%
    01:00 +9°C° 0.2 mm 2 mps 718 mmHg 94%
    02:00 +10°C° 0.2 mm 1 mps 718 mmHg 94%
    03:00 +10°C° 0.4 mm 1 mps 717 mmHg 94%
    04:00 +10°C° 0.4 mm 1 mps 717 mmHg 94%
    05:00 +10°C° 0.4 mm 1 mps 716 mmHg 93%
    06:00 +10°C° 0.6 mm 1 mps 716 mmHg 93%
    07:00 +10°C° 0.6 mm 1 mps 716 mmHg 93%
    08:00 +10°C° 0.6 mm 1 mps 716 mmHg 92%
    09:00 +11°C° 1.4 mm 1 mps 716 mmHg 91%
    10:00 +11°C° 1.4 mm 1 mps 716 mmHg 91%
    11:00 +11°C° 1.4 mm 1 mps 716 mmHg 90%
    12:00 +11°C° 0.8 mm 1 mps 716 mmHg 89%
    13:00 +11°C° 0.8 mm 1 mps 716 mmHg 88%
    14:00 +12°C° 0.8 mm 1 mps 715 mmHg 87%
    15:00 +11°C° 0.7 mm 1 mps 716 mmHg 88%
    16:00 +10°C° 0.7 mm 1 mps 716 mmHg 90%
    17:00 +10°C° 0.7 mm 1 mps 716 mmHg 91%
    18:00 +10°C° 0.4 mm 1 mps 717 mmHg 91%
    19:00 +8°C° 0.4 mm 2 mps 717 mmHg 91%
    20:00 +8°C° 0.4 mm 2 mps 717 mmHg 91%
    21:00 +8°C° 0.1 mm 2 mps 718 mmHg 91%
    22:00 +7°C° 0.1 mm 2 mps 718 mmHg 91%
    23:00 +7°C° 0.1 mm 2 mps 719 mmHg 91%

    22 November, Thursday

    Time Temperature Precipitation Wind Pressure Humidity
    00:00 +7°C° 0 mm 2 mps 719 mmHg 91%
    01:00 +7°C° 0 mm 2 mps 719 mmHg 91%
    02:00 +6°C° 0 mm 2 mps 720 mmHg 91%
    03:00 +6°C° 0 mm 2 mps 720 mmHg 91%
    04:00 +6°C° 0 mm 2 mps 720 mmHg 90%
    05:00 +6°C° 0 mm 2 mps 720 mmHg 90%
    06:00 +6°C° 0.1 mm 2 mps 721 mmHg 89%
    07:00 +7°C° 0.1 mm 1 mps 721 mmHg 88%
    08:00 +7°C° 0.1 mm 1 mps 722 mmHg 87%
    09:00 +8°C° 0.2 mm 1 mps 722 mmHg 84%
    10:00 +9°C° 0.2 mm 1 mps 723 mmHg 80%
    11:00 +9°C° 0.2 mm 1 mps 723 mmHg 76%
    12:00 +10°C° 0.2 mm 1 mps 723 mmHg 76%
    13:00 +10°C° 0.2 mm 1 mps 723 mmHg 75%
    14:00 +10°C° 0.2 mm 1 mps 723 mmHg 74%
    15:00 +10°C° 0.1 mm 1 mps 723 mmHg 77%
    16:00 +9°C° 0.1 mm 1 mps 724 mmHg 80%
    17:00 +8°C° 0.1 mm 1 mps 724 mmHg 83%
    18:00 +8°C° 0.1 mm 1 mps 724 mmHg 84%
    19:00 +7°C° 0.1 mm 1 mps 725 mmHg 85%
    20:00 +7°C° 0.1 mm 1 mps 725 mmHg 86%
    21:00 +7°C° 0.1 mm 1 mps 725 mmHg 86%
    22:00 +7°C° 0.1 mm 1 mps 726 mmHg 86%
    23:00 +7°C° 0.1 mm 1 mps 726 mmHg 87%

    23 November, Friday

    Time Temperature Precipitation Wind Pressure Humidity
    00:00 +6°C° 0 mm 1 mps 726 mmHg 87%
    01:00 +6°C° 0 mm 1 mps 726 mmHg 87%
    02:00 +6°C° 0 mm 1 mps 726 mmHg 87%
    03:00 +6°C° 0 mm 1 mps 727 mmHg 87%
    04:00 +6°C° 0 mm 1 mps 727 mmHg 87%
    05:00 +6°C° 0 mm 1 mps 727 mmHg 87%
    06:00 +6°C° 0 mm 1 mps 727 mmHg 87%
    07:00 +5°C° 0 mm 1 mps 728 mmHg 86%
    08:00 +5°C° 0 mm 1 mps 728 mmHg 86%
    09:00 +7°C° 0 mm 1 mps 728 mmHg 81%
    10:00 +8°C° 0 mm 1 mps 729 mmHg 76%
    11:00 +9°C° 0 mm 1 mps 729 mmHg 71%
    12:00 +10°C° 0 mm 1 mps 729 mmHg 69%
    13:00 +10°C° 0 mm 1 mps 728 mmHg 67%
    14:00 +11°C° 0 mm 1 mps 728 mmHg 65%
    15:00 +10°C° 0 mm 1 mps 728 mmHg 69%
    16:00 +9°C° 0 mm 1 mps 728 mmHg 74%
    17:00 +8°C° 0 mm 1 mps 728 mmHg 78%
    18:00 +7°C° 0 mm 1 mps 728 mmHg 80%
    19:00 +6°C° 0 mm 1 mps 729 mmHg 81%
    20:00 +6°C° 0 mm 1 mps 729 mmHg 83%
    21:00 +4°C° 0 mm 0 mps 729 mmHg 83%
    22:00 +4°C° 0 mm 0 mps 729 mmHg 84%
    23:00 +4°C° 0 mm 0 mps 729 mmHg 84%

    24 November, Saturday

    Time Temperature Precipitation Wind Pressure Humidity
    00:00 +4°C° 0 mm 0 mps 728 mmHg 84%
    01:00 +4°C° 0 mm 0 mps 728 mmHg 84%
    02:00 +3°C° 0 mm 0 mps 728 mmHg 84%
    03:00 +3°C° 0 mm 0 mps 728 mmHg 85%
    04:00 +3°C° 0 mm 0 mps 727 mmHg 85%
    05:00 +3°C° 0 mm 0 mps 727 mmHg 85%
    06:00 +3°C° 0 mm 0 mps 727 mmHg 84%
    07:00 +4°C° 0 mm 0 mps 727 mmHg 83%
    08:00 +5°C° 0 mm 1 mps 727 mmHg 83%
    09:00 +7°C° 0 mm 1 mps 727 mmHg 77%
    10:00 +9°C° 0 mm 1 mps 727 mmHg 72%
    11:00 +11°C° 0 mm 1 mps 727 mmHg 66%
    12:00 +11°C° 0 mm 1 mps 726 mmHg 65%
    13:00 +12°C° 0 mm 1 mps 725 mmHg 63%
    14:00 +12°C° 0 mm 1 mps 725 mmHg 61%
    15:00 +11°C° 0 mm 1 mps 724 mmHg 67%
    16:00 +10°C° 0 mm 1 mps 724 mmHg 72%
    17:00 +9°C° 0 mm 1 mps 724 mmHg 78%
    18:00 +8°C° 0 mm 1 mps 724 mmHg 80%
    19:00 +8°C° 0 mm 1 mps 724 mmHg 83%
    20:00 +7°C° 0 mm 1 mps 724 mmHg 85%
    21:00 +7°C° 0 mm 1 mps 723 mmHg 84%
    22:00 +7°C° 0 mm 1 mps 723 mmHg 84%
    23:00 +7°C° 0 mm 1 mps 723 mmHg 83%
    Show more